Time,TemperatureF,DewpointF,PressureIn,WindDirection,WindDirectionDegrees,WindSpeedMPH,WindSpeedGustMPH,Humidity,HourlyPrecipIn,Conditions,Clouds,dailyrainin,SolarRadiationWatts/m^2,SoftwareType,DateUTC
2013-02-01 00:07:00,47.8,41.0,30.23,NNE,22,0.0,2.0,78,0.00,,,0.00,0,weatherlink.com 1.10,2013-02-01 05:07:00,
2013-02-01 00:21:00,47.5,42.0,30.24,North,349,0.0,2.0,80,0.00,,,0.00,0,weatherlink.com 1.10,2013-02-01 05:21:00,
2013-02-01 00:37:00,48.0,42.0,30.24,NNW,348,1.0,2.0,79,0.00,,,0.00,0,weatherlink.com 1.10,2013-02-01 05:37:00,
2013-02-01 00:52:00,48.7,42.0,30.23,NE,39,2.0,4.0,78,0.00,,,0.00,0,weatherlink.com 1.10,2013-02-01 05:52:00,
2013-02-01 01:07:00,47.7,41.0,30.22,NE,39,1.0,1.0,78,0.00,,,0.00,0,weatherlink.com 1.10,2013-02-01 06:07:00,
2013-02-01 01:22:00,46.5,42.0,30.22,NE,39,0.0,2.0,84,0.00,,,0.00,0,weatherlink.com 1.10,2013-02-01 06:22:00,
2013-02-01 01:37:00,47.4,43.0,30.23,North,350,1.0,3.0,83,0.00,,,0.00,0,weatherlink.com 1.10,2013-02-01 06:37:00,
2013-02-01 01:52:00,48.1,42.0,30.23,NNW,331,1.0,3.0,78,0.00,,,0.00,0,weatherlink.com 1.10,2013-02-01 06:52:00,
2013-02-01 02:07:00,46.7,41.0,30.23,NNW,331,0.0,2.0,79,0.00,,,0.00,0,weatherlink.com 1.10,2013-02-01 07:07:00,
2013-02-01 02:22:00,48.0,40.0,30.24,NNE,24,1.0,7.0,73,0.00,,,0.00,0,weatherlink.com 1.10,2013-02-01 07:22:00,
2013-02-01 02:37:00,47.7,38.0,30.23,NNE,27,1.0,3.0,70,0.00,,,0.00,0,weatherlink.com 1.10,2013-02-01 07:37:00,
2013-02-01 02:52:00,47.0,38.0,30.23,NE,55,2.0,3.0,72,0.00,,,0.00,0,weatherlink.com 1.10,2013-02-01 07:52:00,
2013-02-01 03:07:00,47.7,37.0,30.23,North,355,1.0,5.0,67,0.00,,,0.00,0,weatherlink.com 1.10,2013-02-01 08:07:00,
2013-02-01 03:22:00,47.5,37.0,30.24,NNW,345,2.0,5.0,66,0.00,,,0.00,0,weatherlink.com 1.10,2013-02-01 08:22:00,
2013-02-01 03:52:00,47.3,36.0,30.24,North,5,1.0,5.0,65,0.00,,,0.00,0,weatherlink.com 1.10,2013-02-01 08:52:00,
2013-02-01 04:07:00,47.4,35.0,30.24,North,11,2.0,6.0,63,0.00,,,0.00,0,weatherlink.com 1.10,2013-02-01 09:07:00,
2013-02-01 04:22:00,46.9,35.0,30.25,ENE,68,4.0,8.0,63,0.00,,,0.00,0,weatherlink.com 1.10,2013-02-01 09:22:00,
2013-02-01 04:37:00,46.8,35.0,30.25,NNE,16,0.0,9.0,64,0.00,,,0.00,0,weatherlink.com 1.10,2013-02-01 09:37:00,
2013-02-01 04:52:00,46.5,35.0,30.24,NNE,20,1.0,4.0,65,0.00,,,0.00,0,weatherlink.com 1.10,2013-02-01 09:52:00,
2013-02-01 05:07:00,46.4,35.0,30.25,North,350,2.0,5.0,65,0.00,,,0.00,0,weatherlink.com 1.10,2013-02-01 10:07:00,
2013-02-01 05:22:00,46.4,36.0,30.26,North,355,1.0,5.0,66,0.00,,,0.00,0,weatherlink.com 1.10,2013-02-01 10:22:00,
2013-02-01 05:37:00,46.4,36.0,30.26,NNW,338,3.0,7.0,66,0.00,,,0.00,0,weatherlink.com 1.10,2013-02-01 10:37:00,
2013-02-01 05:52:00,46.5,35.0,30.27,North,10,3.0,6.0,64,0.00,,,0.00,0,weatherlink.com 1.10,2013-02-01 10:52:00,
2013-02-01 06:07:00,46.3,33.0,30.27,NNE,27,3.0,6.0,61,0.00,,,0.00,0,weatherlink.com 1.10,2013-02-01 11:07:00,
2013-02-01 06:22:00,46.3,33.0,30.28,NE,46,3.0,5.0,61,0.00,,,0.00,0,weatherlink.com 1.10,2013-02-01 11:22:00,
2013-02-01 06:37:00,46.2,33.0,30.28,NNE,17,2.0,5.0,61,0.00,,,0.00,0,weatherlink.com 1.10,2013-02-01 11:37:00,
2013-02-01 06:52:00,46.4,33.0,30.29,NNE,15,2.0,5.0,61,0.00,,,0.00,0,weatherlink.com 1.10,2013-02-01 11:52:00,
2013-02-01 07:07:00,46.2,33.0,30.29,North,360,1.0,5.0,61,0.00,,,0.00,0,weatherlink.com 1.10,2013-02-01 12:07:00,
2013-02-01 07:22:00,46.1,33.0,30.30,NNE,17,1.0,5.0,61,0.00,,,0.00,7,weatherlink.com 1.10,2013-02-01 12:22:00,
2013-02-01 07:38:00,46.0,33.0,30.30,NE,48,3.0,6.0,61,0.00,,,0.00,16,weatherlink.com 1.10,2013-02-01 12:38:00,
2013-02-01 07:52:00,46.8,33.0,30.32,NE,39,1.0,5.0,60,0.00,,,0.00,42,weatherlink.com 1.10,2013-02-01 12:52:00,
2013-02-01 08:07:00,48.0,34.0,30.32,NE,34,2.0,7.0,58,0.00,,,0.00,105,weatherlink.com 1.10,2013-02-01 13:07:00,
2013-02-01 08:23:00,49.3,34.0,30.32,East,95,2.0,7.0,57,0.00,,,0.00,149,weatherlink.com 1.10,2013-02-01 13:23:00,
2013-02-01 08:38:00,50.7,36.0,30.33,NNE,24,1.0,8.0,57,0.00,,,0.00,200,weatherlink.com 1.10,2013-02-01 13:38:00,
2013-02-01 08:53:00,52.2,37.0,30.34,East,86,1.0,7.0,57,0.00,,,0.00,253,weatherlink.com 1.10,2013-02-01 13:53:00,
2013-02-01 09:08:00,53.8,38.0,30.34,NNE,13,3.0,7.0,56,0.00,,,0.00,308,weatherlink.com 1.10,2013-02-01 14:08:00,
2013-02-01 09:23:00,54.7,39.0,30.34,North,360,4.0,8.0,55,0.00,,,0.00,362,weatherlink.com 1.10,2013-02-01 14:23:00,
2013-02-01 09:38:00,56.4,39.0,30.34,North,11,3.0,9.0,53,0.00,,,0.00,417,weatherlink.com 1.10,2013-02-01 14:38:00,
2013-02-01 09:53:00,57.3,39.0,30.35,NE,55,5.0,10.0,51,0.00,,,0.00,464,weatherlink.com 1.10,2013-02-01 14:53:00,
2013-02-01 10:08:00,59.1,40.0,30.36,NW,313,2.0,9.0,49,0.00,,,0.00,510,weatherlink.com 1.10,2013-02-01 15:08:00,
2013-02-01 10:23:00,60.5,40.0,30.36,North,355,1.0,9.0,48,0.00,,,0.00,554,weatherlink.com 1.10,2013-02-01 15:23:00,
2013-02-01 10:38:00,59.9,39.0,30.36,NNE,17,3.0,10.0,46,0.00,,,0.00,592,weatherlink.com 1.10,2013-02-01 15:38:00,
2013-02-01 10:53:00,61.4,40.0,30.35,NE,47,1.0,8.0,45,0.00,,,0.00,628,weatherlink.com 1.10,2013-02-01 15:53:00,
2013-02-01 11:08:00,61.8,37.0,30.35,NNW,348,5.0,8.0,40,0.00,,,0.00,663,weatherlink.com 1.10,2013-02-01 16:08:00,
2013-02-01 11:23:00,63.1,38.0,30.35,NNW,348,3.0,9.0,39,0.00,,,0.00,693,weatherlink.com 1.10,2013-02-01 16:23:00,
2013-02-01 11:39:00,63.5,37.0,30.35,North,9,2.0,11.0,37,0.00,,,0.00,717,weatherlink.com 1.10,2013-02-01 16:39:00,
2013-02-01 11:53:00,62.6,34.0,30.35,NNE,22,8.0,9.0,35,0.00,,,0.00,738,weatherlink.com 1.10,2013-02-01 16:53:00,
2013-02-01 12:09:00,64.1,35.0,30.34,ENE,71,7.0,9.0,34,0.00,,,0.00,754,weatherlink.com 1.10,2013-02-01 17:09:00,
2013-02-01 12:24:00,65.0,41.0,30.33,NNW,341,6.0,7.0,41,0.00,,,0.00,765,weatherlink.com 1.10,2013-02-01 17:24:00,
2013-02-01 12:39:00,64.8,38.0,30.33,NNW,339,1.0,9.0,38,0.00,,,0.00,773,weatherlink.com 1.10,2013-02-01 17:39:00,
2013-02-01 12:54:00,65.1,38.0,30.32,WNW,291,1.0,14.0,37,0.00,,,0.00,780,weatherlink.com 1.10,2013-02-01 17:54:00,
2013-02-01 13:09:00,64.8,38.0,30.32,West,272,2.0,11.0,37,0.00,,,0.00,779,weatherlink.com 1.10,2013-02-01 18:09:00,
2013-02-01 13:24:00,65.7,38.0,30.31,North,351,7.0,11.0,36,0.00,,,0.00,775,weatherlink.com 1.10,2013-02-01 18:24:00,
2013-02-01 13:39:00,65.9,37.0,30.30,WNW,283,7.0,9.0,34,0.00,,,0.00,766,weatherlink.com 1.10,2013-02-01 18:39:00,
2013-02-01 13:54:00,65.8,37.0,30.30,NW,326,4.0,8.0,34,0.00,,,0.00,751,weatherlink.com 1.10,2013-02-01 18:54:00,
2013-02-01 14:09:00,65.2,35.0,30.29,NNW,330,5.0,11.0,33,0.00,,,0.00,733,weatherlink.com 1.10,2013-02-01 19:09:00,
2013-02-01 14:24:00,65.2,35.0,30.29,NW,321,8.0,13.0,33,0.00,,,0.00,710,weatherlink.com 1.10,2013-02-01 19:24:00,
2013-02-01 14:39:00,65.5,36.0,30.28,North,10,2.0,11.0,34,0.00,,,0.00,680,weatherlink.com 1.10,2013-02-01 19:39:00,
2013-02-01 14:54:00,65.8,37.0,30.28,North,350,4.0,7.0,34,0.00,,,0.00,654,weatherlink.com 1.10,2013-02-01 19:54:00,
2013-02-01 15:09:00,65.5,36.0,30.28,West,280,4.0,8.0,33,0.00,,,0.00,617,weatherlink.com 1.10,2013-02-01 20:09:00,
2013-02-01 15:24:00,65.6,34.0,30.28,NW,304,3.0,8.0,31,0.00,,,0.00,580,weatherlink.com 1.10,2013-02-01 20:24:00,
2013-02-01 15:39:00,65.2,32.0,30.28,WNW,287,5.0,8.0,29,0.00,,,0.00,538,weatherlink.com 1.10,2013-02-01 20:39:00,
2013-02-01 15:54:00,64.8,33.0,30.28,NW,323,3.0,8.0,31,0.00,,,0.00,494,weatherlink.com 1.10,2013-02-01 20:54:00,
2013-02-01 16:09:00,64.6,35.0,30.27,NNW,336,1.0,9.0,33,0.00,,,0.00,443,weatherlink.com 1.10,2013-02-01 21:09:00,
2013-02-01 16:24:00,64.0,40.0,30.27,West,267,3.0,9.0,41,0.00,,,0.00,390,weatherlink.com 1.10,2013-02-01 21:24:00,
2013-02-01 16:39:00,62.7,40.0,30.27,NNE,17,2.0,8.0,43,0.00,,,0.00,343,weatherlink.com 1.10,2013-02-01 21:39:00,
2013-02-01 16:54:00,62.9,41.0,30.27,WNW,286,1.0,9.0,45,0.00,,,0.00,188,weatherlink.com 1.10,2013-02-01 21:54:00,
2013-02-01 17:09:00,63.2,41.0,30.27,WSW,257,4.0,7.0,45,0.00,,,0.00,253,weatherlink.com 1.10,2013-02-01 22:09:00,
2013-02-01 17:24:00,62.1,41.0,30.28,NW,325,3.0,6.0,47,0.00,,,0.00,169,weatherlink.com 1.10,2013-02-01 22:24:00,
2013-02-01 17:39:00,60.3,43.0,30.28,WNW,286,1.0,6.0,53,0.00,,,0.00,120,weatherlink.com 1.10,2013-02-01 22:39:00,
2013-02-01 17:54:00,59.2,43.0,30.27,NW,323,1.0,6.0,56,0.00,,,0.00,46,weatherlink.com 1.10,2013-02-01 22:54:00,
2013-02-01 18:09:00,57.5,44.0,30.28,WNW,296,1.0,5.0,60,0.00,,,0.00,7,weatherlink.com 1.10,2013-02-01 23:09:00,
2013-02-01 18:24:00,56.3,43.0,30.28,West,276,0.0,3.0,62,0.00,,,0.00,0,weatherlink.com 1.10,2013-02-01 23:24:00,
2013-02-01 18:39:00,55.5,43.0,30.27,West,279,1.0,3.0,64,0.00,,,0.00,0,weatherlink.com 1.10,2013-02-01 23:39:00,
2013-02-01 18:54:00,54.1,43.0,30.27,West,279,0.0,2.0,67,0.00,,,0.00,0,weatherlink.com 1.10,2013-02-01 23:54:00,
2013-02-01 19:09:00,51.9,43.0,30.27,West,279,0.0,0.0,72,0.00,,,0.00,0,weatherlink.com 1.10,2013-02-02 00:09:00,
2013-02-01 19:24:00,50.8,43.0,30.27,West,279,1.0,2.0,75,0.00,,,0.00,0,weatherlink.com 1.10,2013-02-02 00:24:00,
2013-02-01 19:39:00,51.0,44.0,30.27,West,279,2.0,3.0,76,0.00,,,0.00,0,weatherlink.com 1.10,2013-02-02 00:39:00,
2013-02-01 19:54:00,51.9,45.0,30.26,WNW,290,0.0,4.0,76,0.00,,,0.00,0,weatherlink.com 1.10,2013-02-02 00:54:00,
2013-02-01 20:12:00,51.5,44.0,30.27,NW,316,0.0,1.0,75,0.00,,,0.00,0,weatherlink.com 1.10,2013-02-02 01:12:00,
2013-02-01 20:24:00,50.3,44.0,30.27,NW,316,0.0,1.0,78,0.00,,,0.00,0,weatherlink.com 1.10,2013-02-02 01:24:00,
2013-02-01 20:39:00,49.2,44.0,30.27,NW,316,0.0,1.0,81,0.00,,,0.00,0,weatherlink.com 1.10,2013-02-02 01:39:00,
2013-02-01 20:54:00,48.5,44.0,30.27,NW,316,0.0,0.0,83,0.00,,,0.00,0,weatherlink.com 1.10,2013-02-02 01:54:00,
2013-02-01 21:09:00,47.9,43.0,30.28,NW,316,0.0,1.0,84,0.00,,,0.00,0,weatherlink.com 1.10,2013-02-02 02:09:00,
2013-02-01 21:24:00,48.2,44.0,30.28,NW,316,0.0,0.0,84,0.00,,,0.00,0,weatherlink.com 1.10,2013-02-02 02:24:00,
2013-02-01 21:39:00,47.9,43.0,30.28,NW,316,0.0,0.0,84,0.00,,,0.00,0,weatherlink.com 1.10,2013-02-02 02:39:00,
2013-02-01 21:54:00,47.7,43.0,30.28,NW,316,0.0,0.0,85,0.00,,,0.00,0,weatherlink.com 1.10,2013-02-02 02:54:00,
2013-02-01 22:09:00,47.1,43.0,30.29,NW,316,0.0,1.0,85,0.00,,,0.00,0,weatherlink.com 1.10,2013-02-02 03:09:00,
2013-02-01 22:24:00,46.6,43.0,30.29,NW,316,0.0,0.0,86,0.00,,,0.00,0,weatherlink.com 1.10,2013-02-02 03:24:00,
2013-02-01 22:39:00,46.2,43.0,30.29,NW,316,0.0,0.0,87,0.00,,,0.00,0,weatherlink.com 1.10,2013-02-02 03:39:00,
2013-02-01 22:54:00,46.3,43.0,30.29,NW,316,0.0,0.0,87,0.00,,,0.00,0,weatherlink.com 1.10,2013-02-02 03:54:00,
2013-02-01 23:09:00,47.4,43.0,30.29,NW,316,0.0,1.0,85,0.00,,,0.00,0,weatherlink.com 1.10,2013-02-02 04:09:00,
2013-02-01 23:24:00,49.2,44.0,30.28,NW,318,0.0,3.0,83,0.00,,,0.00,0,weatherlink.com 1.10,2013-02-02 04:24:00,
2013-02-01 23:39:00,50.0,44.0,30.28,WNW,295,1.0,4.0,81,0.00,,,0.00,0,weatherlink.com 1.10,2013-02-02 04:39:00,
2013-02-01 23:54:00,51.5,45.0,30.28,WNW,303,1.0,3.0,77,0.00,,,0.00,0,weatherlink.com 1.10,2013-02-02 04:54:00,